Powrót do katalogu

FENGYUN 1B

AktywnyPogodaSSO
NORAD 20788·PAYLOAD·🇨🇳 China

Wystrzelony Sep 3, 1990 z Taiyuan Satellite Launch Center

Loading…

Następne Przeloty (najbliższe 24 godziny)

TLE

ŚwieżeSource: Space-Track

Epoka: Sep 14, 2026, 21:40 UTC

1 20788U 90081A   26257.90317332 -.00000224  00000-0 -11575-3 0  9995
2 20788  98.9836 236.9013 0017118  83.9629 276.3488 14.03208216844134

Śledź FENGYUN 1B w czasie rzeczywistym z AllMySat

Download on the App Store